Lid_Strength_Index
3 2 1 1 1 0 0 0 0 -0 -0 0 1 0 1 -0 -0 -1 -2 -2 -1 -2 -2 -1 -1 -1 -1 -0 -1 -0 0 0 -0 1 2 1 -0 -0 -0 -1 -0 -1 -1
3 2 2 1 1 1 0 0 0 -0 -0 -0 0 0 0 -0 -0 -1 -2 -2 -2 -2 -1 -1 -1 -1 -0 -1 -1 -1 1 0 -0 2 2 5 3 1 0 -0 0 -0 -1
4 3 2 2 1 1 1 1 0 -0 -0 -1 -0 -0 -0 0 0 -0 -0 -1 -2 -2 -2 -1 -1 -1 -1 0 -0 -1 -0 1 0 -0 2 5 6 4 1 0 0 -0 -0
3 3 2 2 1 1 0 0 0 -0 -0 -1 -0 1 2 2 0 0 -1 -1 -2 -2 -1 -2 -1 -1 -1 -1 -1 -1 -0 -0 1 0 -0 0 1 5 6 2 0 -0 -0
3 3 2 2 1 1 1 0 0 0 -0 -0 -0 0 1 0 0 0 1 -1 -1 -2 -1 -2 -1 -1 -1 -1 -1 -1 -1 -0 1 1 1 1 1 0 2 5 3 2 1
3 3 2 2 1 1 1 0 0 0 -0 -0 -0 0 0 1 1 0 1 0 -0 -0 -1 -1 -1 -2 -1 -1 -1 -1 -1 -0 0 0 0 1 2 3 2 3 3 3 2
3 3 3 2 2 1 1 1 1 1 0 0 0 -0 0 -0 0 0 0 1 1 1 -0 -1 -1 -1 -1 -1 -1 -1 -1 -1 0 -0 1 1 0 0 1 2 2 2 2
3 3 3 2 2 1 1 1 1 1 0 0 0 -0 -0 0 0 0 0 0 1 1 -0 -1 -1 -1 -1 -1 -1 -0 -0 -1 -0 -0 -0 1 0 0 0 1 2 3 3
3 3 2 2 2 2 1 1 1 1 1 0 0 0 0 0 -0 -0 -0 0 -0 -0 -1 -1 -1 -1 -1 -1 -1 -0 -0 -1 -0 -0 -0 0 0 0 -0 0 1 2 4
3 3 2 2 2 1 1 1 1 1 1 0 0 0 0 -0 -0 -1 -0 -1 -1 -1 -1 -1 -1 -1 -1 -1 -1 -0 -1 -1 -0 0 -0 -0 -0 0 -0 0 -0 1 3
3 3 2 2 2 1 1 1 1 1 1 1 0 0 0 0 -0 -0 -0 -0 -1 -1 -1 -1 -1 -1 -1 -1 -1 -0 -0 -0 -0 -0 -0 -0 -1 0 0 0 -0 1 1
3 3 2 2 2 2 1 1 1 1 1 0 0 0 0 -0 0 0 -0 -1 -0 -1 -1 -1 -0 -0 -0 -1 -0 0 -0 -0 0 0 0 0 0 -0 -0 0 0 0 0
3 3 3 2 2 2 1 1 1 1 1 1 1 1 1 0 0 0 -0 -0 -0 -0 -0 -0 -0 -0 -0 -0 -0 -0 -0 -0 0 -0 0 0 0 0 0 0 0 1 1
3 3 3 2 2 2 2 1 1 1 1 1 1 1 1 0 0 -0 -0 -0 -0 -0 -0 -0 -0 -0 -0 -0 -0 -0 0 0 -0 -0 -0 0 0 0 0 0 0 0 1
4 3 3 3 2 2 2 1 1 1 1 1 1 1 0 0 0 0 0 -0 0 -0 -0 -0 -0 -0 -0 0 -0 -0 0 0 0 -0 -0 -0 0 1 0 0 0 -0 1
3 3 3 3 2 2 2 2 1 1 1 1 1 0 0 0 0 0 0 -0 -0 -0 -0 0 -0 0 0 2 2 0 0 0 0 1 0 -0 0 0 2 2 1 0 1
3 3 3 3 2 2 2 2 1 1 1 1 1 1 0 1 1 1 1 1 0 0 0 0 0 0 0 3 4 2 -0 0 0 0 0 0 0 0 -0 2 3 2 2
3 3 3 2 2 1 1 1 1 1 1 1 1 1 1 1 1 1 1 1 0 0 1 0 0 0 0 4 5 3 -0 0 0 -0 -0 0 0 0 0 0 0 0 0
2 2 2 2 2 1 1 1 1 1 1 2 1 1 1 1 1 1 1 1 1 1 1 1 0 1 0 4 5 3 0 1 0 -0 -0 -0 0 2 5 0 1 1 0
2 2 2 2 2 1 1 2 2 2 2 1 1 0 0 1 1 1 1 0 0 1 1 1 0 2 0 3 5 4 0 1 1 0 0 3 1 6 7 0 1 2 1
2 2 2 2 2 1 1 2 2 2 1 1 0 0 0 1 0 1 0 1 1 1 1 1 0 0 0 4 7 6 0 1 1 1 1 0 7 8 8 8 0 1 1
2 2 2 2 1 1 1 2 2 1 1 1 1 1 1 1 1 1 1 1 1 1 1 1 1 2 2 6 7 7 6 5 1 1 0 2 8 8 9 6 5 6 5
2 2 2 2 1 1 1 2 1 1 1 1 2 1 1 0 0 1 1 1 1 2 2 2 2 2 2 3 6 6 6 7 2 0 3 6 7 7 5 7 7 7 1
2 2 2 2 2 1 1 1 1 1 1 1 1 1 1 1 0 1 0 1 1 2 2 2 2 2 1 1 0 0 0 3 2 2 0 2 3 5 3 2 1 0 1
2 2 2 2 2 1 1 1 1 0 1 1 1 1 1 1 1 1 1 1 1 3 1 2 1 2 2 2 7 7 1 0 3 2 -0 1 1 1 1 1 1 1 1
2 2 1 3 3 2 1 1 0 0 1 1 1 1 1 1 1 1 1 8 8 10 10 10 6 1 8 9 10 10 9 9 9 1 1 2 1 2 2 2 2 3 4